Location: *
(37.7699°S, 57.7948°E)
Time: 03:06:51
(UTC+00:00)

Daily predictions for brighter satellites

Satellite Brightness Start Highest point End
(mag) Time Altitude Azimuth Time Altitude Azimuth Time Altitude Azimuth
Unknown 4.3 00:02:24 20° NNW 00:05:05 50° NE 00:09:09 10° ESE
SeaSat 1 2.5 00:01:04 10° NNE 00:06:00 83° ESE 00:11:00 10° SSW
Cosmos 1544 3.9 00:05:40 28° W 00:06:16 30° WSW 00:09:34 10° SSW
Unknown 4.4 00:05:13 17° NNW 00:08:07 47° NE 00:12:11 10° ESE
Unknown 4.3 00:08:24 17° NNW 00:11:25 51° NE 00:15:31 10° ESE
Hubble Space Telescope 3.0 00:12:24 11° NNW 00:12:24 11° NNW 00:13:19 10° N
Cosmos 1689 Rocket 3.2 00:09:11 10° SSE 00:12:13 47° E 00:15:12 10° N
Unknown 4.2 00:10:05 17° NNW 00:13:09 53° NE 00:17:17 10° ESE
ATLAS 5 CENTAUR R/B 4.1 00:08:11 10° N 00:14:36 37° ENE 00:20:43 10° SE
Unknown 4.2 00:11:36 16° NNW 00:14:44 55° NE 00:18:52 10° SE
Cosmos 1140 Rocket 4.3 00:10:39 10° SW 00:15:10 29° W 00:19:39 10° NNW
Unknown 4.1 00:13:16 16° NNW 00:16:27 57° NE 00:20:36 10° SE
Unknown 3.8 00:14:00 18° NW 00:17:01 67° NE 00:21:10 10° SE
Cosmos 389 Rocket 2.7 00:16:12 10° SSW 00:19:38 45° W 00:22:59 10° NNW
Cosmos 2074 Rocket 4.1 00:14:27 10° SSW 00:20:40 57° W 00:26:49 10° NNW
RESURS DK-1 3.7 00:17:46 10° WSW 00:20:49 20° WNW 00:22:43 15° NW
CZ-4B R/B 2.8 00:17:59 10° N 00:21:29 46° W 00:25:02 10° SSW
Unknown 3.9 00:19:37 15° NW 00:23:02 67° NE 00:27:14 10° SE
Meteor 1-15 Rocket 4.2 00:18:28 10° N 00:24:03 82° W 00:29:44 10° S
Unknown 3.8 00:21:15 14° NW 00:24:44 69° NE 00:28:56 10° SE
Unknown 3.5 00:21:44 17° NW 00:24:45 81° SW 00:28:53 10° SE
OAO 2 Rocket 4.0 00:21:10 16° NW 00:24:54 44° NNE 00:29:38 10° E
SL-24 R/B - RUBIN 2 4.3 00:19:03 11° NW 00:25:06 75° WSW 00:30:50 10° SSE
Unknown 3.8 00:22:50 14° NW 00:26:23 72° NE 00:30:35 10° SE
H-2A R/B 3.9 00:25:15 10° SW 00:27:10 13° WSW 00:28:19 12° W
SL-16 R/B 4.0 00:23:12 10° SSW 00:27:17 19° WSW 00:30:41 12° W
Unknown 3.8 00:24:23 14° NW 00:27:59 74° NE 00:32:13 10° SE
Unknown 3.7 00:26:01 13° NW 00:29:41 77° NE 00:33:54 10° SE
Cosmos 1331 Rocket 4.1 00:25:38 10° NNW 00:30:51 81° ENE 00:36:11 10° SSE
Cosmos 2263 Rocket 2.2 00:26:10 10° NNW 00:31:46 83° WSW 00:37:27 10° SSE
Unknown 3.7 00:29:15 12° NW 00:33:03 83° NE 00:37:17 10° SE
CZ-2C R/B 3.1 00:29:11 10° NNW 00:33:37 32° W 00:37:58 10° SSW
Starlink (trailer) 3.7 00:30:51 12° NW 00:34:42 85° NE 00:38:57 10° SE
MOS 1-B 4.3 00:29:10 10° N 00:34:58 71° WNW 00:40:49 10° SSW
Unknown 3.7 00:32:26 12° NW 00:36:21 89° NE 00:40:35 10° SE
Cosmos 1741 Rocket 4.0 00:31:43 10° SSW 00:37:00 69° WNW 00:42:16 10° N
ASTRO E2 3.9 00:34:14 14° WNW 00:37:03 28° N 00:40:31 10° NE
Unknown 3.6 00:33:59 11° NW 00:37:58 89° SW 00:42:12 10° SE
Cosmos 1707 3.4 00:35:44 10° SSW 00:39:19 34° W 00:42:52 10° NNW
PSLV R/B 3.9 00:36:22 10° N 00:40:04 51° W 00:43:56 10° SSW
ISS -2.5 00:39:17 10° WSW 00:42:04 23° NW 00:44:48 10° N
Helios 1A Rocket 3.0 00:39:40 10° NNE 00:43:48 88° E 00:48:00 10° SSW
Timation 1 Rocket 4.4 00:38:06 10° NNW 00:44:05 87° ENE 00:50:11 10° SSE
Unknown 3.7 00:40:18 10° NW 00:44:29 77° SW 00:48:43 10° SE
Unknown 3.7 00:40:29 10° NW 00:44:40 78° SW 00:48:54 10° SE
Unknown 3.7 00:41:11 10° NW 00:45:22 77° SW 00:49:36 10° SE
CZ-4B DEB 4.2 00:41:24 10° N 00:46:50 67° WNW 00:52:23 10° SSW
ALOS 2.6 00:43:02 10° NNE 00:47:42 74° ESE 00:52:27 10° S
Cosmos 1184 Rocket 3.2 00:44:50 10° N 00:48:04 65° E 00:51:21 10° SSE
PAYLOAD B 4.2 00:43:22 10° N 00:48:52 72° WNW 00:54:26 10° SSW
Unknown 3.7 00:45:10 10° NW 00:49:20 71° SW 00:53:34 10° SE
Unknown 3.7 00:45:29 10° NW 00:49:39 71° SW 00:53:52 10° SE
ATLAS 3B CENTAUR R/B 4.2 00:34:35 10° W 00:50:43 46° NNW 00:57:44 10° NE
Unknown 3.8 00:47:15 10° WNW 00:51:25 65° SW 00:55:37 10° SE
Cosmos 1766 3.3 00:47:26 10° N 00:51:28 88° WSW 00:55:33 10° S
Cosmos 1603 3.7 00:46:17 10° SSW 00:51:57 73° WNW 00:57:32 10° NNE
SL-16 R/B 3.5 00:48:24 10° WSW 00:52:13 19° W 00:56:01 10° NW
Unknown 3.8 00:50:36 10° WNW 00:54:44 61° SW 00:58:55 10° SE
Unknown 3.8 00:51:03 10° WNW 00:55:11 63° SW 00:59:23 10° SE
Unknown 3.8 00:52:11 10° WNW 00:56:19 61° SW 01:00:30 10° SE
